When you browse on this site, cookies collect data to enhance your experience and personalize the content and advertising you see.
Visit our Privacy Policy to learn more. By continuing to use the site, you agree to this use of cookies and data.
  • en Suisse
  • Liste des pays
  • À 7 jours
  • Température de l'eau
  • Carte météo
  • Widgets météo
  • user-avatar
    Se connecter

    Météo par heure à Chakhansur

    Ce jour, 23 Janvier, Jeudi

    Heure Température Précipitation Vent Pression Humidité
    00:00 +12°C° 0 mm 4 m/s 724 mmHg 51%
    01:00 +12°C° 0 mm 5 m/s 723 mmHg 51%
    02:00 +12°C° 0 mm 5 m/s 723 mmHg 52%
    03:00 +10°C° 0 mm 5 m/s 722 mmHg 52%
    04:00 +10°C° 0 mm 5 m/s 722 mmHg 55%
    05:00 +10°C° 0 mm 5 m/s 722 mmHg 56%
    06:00 +10°C° 0 mm 5 m/s 722 mmHg 56%
    07:00 +10°C° 0 mm 5 m/s 722 mmHg 57%
    08:00 +12°C° 0 mm 5 m/s 723 mmHg 55%
    09:00 +12°C° 0 mm 5 m/s 723 mmHg 53%
    10:00 +13°C° 0 mm 6 m/s 723 mmHg 49%
    11:00 +14°C° 0 mm 5 m/s 722 mmHg 47%
    12:00 +15°C° 0 mm 5 m/s 722 mmHg 46%
    13:00 +16°C° 0 mm 5 m/s 721 mmHg 44%
    14:00 +17°C° 0 mm 5 m/s 720 mmHg 44%
    15:00 +17°C° 0 mm 5 m/s 720 mmHg 44%
    16:00 +17°C° 0 mm 5 m/s 719 mmHg 44%
    17:00 +17°C° 0 mm 6 m/s 719 mmHg 47%
    18:00 +16°C° 0 mm 6 m/s 718 mmHg 50%
    19:00 +15°C° 0 mm 6 m/s 718 mmHg 53%
    20:00 +15°C° 0.1 mm 7 m/s 718 mmHg 56%
    21:00 +15°C° 0.1 mm 7 m/s 718 mmHg 60%
    22:00 +16°C° 0.1 mm 7 m/s 718 mmHg 63%
    23:00 +16°C° 0.1 mm 7 m/s 718 mmHg 64%

    Demain, 24 Janvier, Vendredi

    Heure Température Précipitation Vent Pression Humidité
    00:00 +15°C° 0.1 mm 7 m/s 718 mmHg 66%
    01:00 +15°C° 0.1 mm 7 m/s 717 mmHg 67%
    02:00 +14°C° 0.7 mm 5 m/s 717 mmHg 72%
    03:00 +13°C° 0.7 mm 4 m/s 717 mmHg 76%
    04:00 +12°C° 0.7 mm 3 m/s 717 mmHg 81%
    05:00 +12°C° 0.6 mm 3 m/s 717 mmHg 83%
    06:00 +12°C° 0.6 mm 4 m/s 718 mmHg 85%
    07:00 +12°C° 0.6 mm 4 m/s 718 mmHg 87%
    08:00 +12°C° 0.6 mm 4 m/s 719 mmHg 87%
    09:00 +12°C° 0.6 mm 3 m/s 719 mmHg 86%
    10:00 +13°C° 0.6 mm 3 m/s 719 mmHg 86%
    11:00 +13°C° 0.5 mm 3 m/s 719 mmHg 86%
    12:00 +13°C° 0.5 mm 3 m/s 719 mmHg 87%
    13:00 +13°C° 0.5 mm 4 m/s 719 mmHg 87%
    14:00 +13°C° 0.2 mm 5 m/s 718 mmHg 85%
    15:00 +12°C° 0.2 mm 5 m/s 718 mmHg 83%
    16:00 +11°C° 0.2 mm 6 m/s 718 mmHg 82%
    17:00 +11°C° 0 mm 6 m/s 718 mmHg 81%
    18:00 +10°C° 0 mm 6 m/s 719 mmHg 80%
    19:00 +10°C° 0 mm 6 m/s 719 mmHg 80%
    20:00 +10°C° 0 mm 5 m/s 720 mmHg 80%
    21:00 +10°C° 0 mm 4 m/s 720 mmHg 81%
    22:00 +10°C° 0 mm 2 m/s 720 mmHg 82%
    23:00 +10°C° 0 mm 3 m/s 720 mmHg 82%

    Après-demain, 25 Janvier, Samedi

    Heure Température Précipitation Vent Pression Humidité
    00:00 +9°C° 0 mm 3 m/s 720 mmHg 83%
    01:00 +9°C° 0 mm 3 m/s 720 mmHg 83%
    02:00 +9°C° 0 mm 3 m/s 720 mmHg 83%
    03:00 +9°C° 0 mm 3 m/s 720 mmHg 84%
    04:00 +8°C° 0 mm 3 m/s 720 mmHg 84%
    05:00 +8°C° 0 mm 3 m/s 720 mmHg 84%
    06:00 +8°C° 0 mm 3 m/s 720 mmHg 85%
    07:00 +8°C° 0 mm 3 m/s 721 mmHg 85%
    08:00 +9°C° 0 mm 3 m/s 721 mmHg 78%
    09:00 +10°C° 0 mm 3 m/s 721 mmHg 72%
    10:00 +12°C° 0 mm 4 m/s 722 mmHg 65%
    11:00 +13°C° 0 mm 4 m/s 721 mmHg 61%
    12:00 +14°C° 0 mm 4 m/s 721 mmHg 56%
    13:00 +16°C° 0 mm 3 m/s 720 mmHg 51%
    14:00 +16°C° 0 mm 3 m/s 720 mmHg 50%
    15:00 +16°C° 0 mm 3 m/s 720 mmHg 49%
    16:00 +16°C° 0 mm 3 m/s 719 mmHg 48%
    17:00 +16°C° 0 mm 3 m/s 719 mmHg 50%
    18:00 +14°C° 0 mm 3 m/s 719 mmHg 52%
    19:00 +13°C° 0 mm 3 m/s 720 mmHg 54%
    20:00 +13°C° 0 mm 3 m/s 720 mmHg 55%
    21:00 +12°C° 0 mm 3 m/s 720 mmHg 55%
    22:00 +12°C° 0 mm 3 m/s 720 mmHg 55%
    23:00 +12°C° 0 mm 3 m/s 720 mmHg 56%

    26 Janvier, Dimanche

    Heure Température Précipitation Vent Pression Humidité
    00:00 +11°C° 0 mm 3 m/s 720 mmHg 57%
    01:00 +11°C° 0 mm 3 m/s 719 mmHg 59%
    02:00 +10°C° 0 mm 4 m/s 719 mmHg 61%
    03:00 +10°C° 0 mm 4 m/s 719 mmHg 62%
    04:00 +8°C° 0 mm 4 m/s 719 mmHg 64%
    05:00 +8°C° 0 mm 4 m/s 719 mmHg 65%
    06:00 +8°C° 0 mm 4 m/s 720 mmHg 65%
    07:00 +8°C° 0 mm 4 m/s 720 mmHg 66%
    08:00 +8°C° 0 mm 4 m/s 720 mmHg 65%
    09:00 +8°C° 0 mm 5 m/s 720 mmHg 63%
    10:00 +9°C° 0 mm 5 m/s 720 mmHg 62%
    11:00 +9°C° 0 mm 5 m/s 720 mmHg 61%
    12:00 +10°C° 0 mm 6 m/s 719 mmHg 61%
    13:00 +10°C° 0 mm 6 m/s 719 mmHg 60%
    14:00 +10°C° 0 mm 6 m/s 719 mmHg 62%
    15:00 +10°C° 0 mm 6 m/s 719 mmHg 64%
    16:00 +10°C° 0 mm 6 m/s 719 mmHg 66%
    17:00 +9°C° 0 mm 5 m/s 719 mmHg 66%
    18:00 +10°C° 0 mm 4 m/s 719 mmHg 66%
    19:00 +9°C° 0 mm 3 m/s 720 mmHg 66%
    20:00 +8°C° 0 mm 4 m/s 720 mmHg 65%
    21:00 +7°C° 0 mm 4 m/s 720 mmHg 65%
    22:00 +7°C° 0 mm 4 m/s 720 mmHg 64%
    23:00 +7°C° 0 mm 5 m/s 720 mmHg 64%

    27 Janvier, Lundi

    Heure Température Précipitation Vent Pression Humidité
    00:00 +6°C° 0 mm 5 m/s 719 mmHg 64%
    01:00 +6°C° 0 mm 5 m/s 719 mmHg 64%
    02:00 +5°C° 0 mm 5 m/s 719 mmHg 64%
    03:00 +5°C° 0 mm 5 m/s 719 mmHg 64%
    04:00 +4°C° 0 mm 6 m/s 719 mmHg 65%
    05:00 +5°C° 0 mm 5 m/s 719 mmHg 65%
    06:00 +3°C° 0 mm 5 m/s 720 mmHg 66%
    07:00 +3°C° 0 mm 5 m/s 720 mmHg 67%
    08:00 +5°C° 0 mm 6 m/s 720 mmHg 60%
    09:00 +6°C° 0 mm 7 m/s 721 mmHg 53%
    10:00 +7°C° 0 mm 8 m/s 721 mmHg 46%
    11:00 +9°C° 0 mm 8 m/s 721 mmHg 42%
    12:00 +10°C° 0 mm 8 m/s 720 mmHg 38%
    13:00 +11°C° 0 mm 8 m/s 720 mmHg 35%
    14:00 +11°C° 0 mm 8 m/s 720 mmHg 34%
    15:00 +11°C° 0 mm 8 m/s 720 mmHg 34%
    16:00 +11°C° 0 mm 8 m/s 720 mmHg 33%
    17:00 +10°C° 0 mm 8 m/s 720 mmHg 36%
    18:00 +9°C° 0 mm 7 m/s 720 mmHg 39%
    19:00 +8°C° 0 mm 7 m/s 720 mmHg 43%
    20:00 +8°C° 0 mm 7 m/s 720 mmHg 44%
    21:00 +6°C° 0 mm 8 m/s 720 mmHg 44%
    22:00 +6°C° 0 mm 8 m/s 721 mmHg 45%
    23:00 +5°C° 0 mm 8 m/s 721 mmHg 47%

    28 Janvier, Mardi

    Heure Température Précipitation Vent Pression Humidité
    00:00 +5°C° 0 mm 8 m/s 720 mmHg 49%
    01:00 +3°C° 0 mm 9 m/s 720 mmHg 51%
    02:00 +3°C° 0 mm 9 m/s 720 mmHg 53%
    03:00 +2°C° 0 mm 9 m/s 720 mmHg 54%
    04:00 +2°C° 0 mm 9 m/s 720 mmHg 56%
    05:00 +2°C° 0 mm 9 m/s 720 mmHg 58%
    06:00 +1°C° 0 mm 9 m/s 721 mmHg 60%
    07:00 +1°C° 0 mm 9 m/s 721 mmHg 62%
    08:00 +2°C° 0 mm 10 m/s 721 mmHg 58%
    09:00 +3°C° 0 mm 10 m/s 722 mmHg 55%
    10:00 +5°C° 0 mm 10 m/s 722 mmHg 51%
    11:00 +6°C° 0 mm 11 m/s 722 mmHg 48%
    12:00 +7°C° 0 mm 11 m/s 721 mmHg 44%
    13:00 +8°C° 0 mm 11 m/s 721 mmHg 41%
    14:00 +7°C° 0 mm 11 m/s 720 mmHg 41%
    15:00 +7°C° 0 mm 11 m/s 720 mmHg 41%
    16:00 +7°C° 0 mm 11 m/s 720 mmHg 41%
    17:00 +6°C° 0 mm 11 m/s 720 mmHg 42%
    18:00 +4°C° 0 mm 11 m/s 720 mmHg 44%
    19:00 +4°C° 0 mm 11 m/s 721 mmHg 46%
    20:00 +3°C° 0 mm 11 m/s 721 mmHg 47%
    21:00 +3°C° 0 mm 10 m/s 721 mmHg 48%
    22:00 +2°C° 0 mm 10 m/s 721 mmHg 48%
    23:00 +2°C° 0 mm 10 m/s 721 mmHg 49%
    Voir plus